This demonstration page uses our WeatherBlox Daily Observations layout. Learn more.

Left ArrowRight Arrow

Hourly Observations for January 3, 2020

Temp ( °F °C ) Dew Point ( °F °C ) Humidity (%) Winds ( mph kmh ) Pressure ( in mb ) Visibility ( mi km ) Precip ( " mm )
12:53 am 00:53 Clear 25 -3.9 21 -6.1 85 85 SW 14 22 30.00 1016 10 16 0.00 0.00
1:53 am 01:53 Clear 24 -4.4 20 -6.7 84 84 W 7 11 30.02 1017 10 16 0.00 0.00
2:53 am 02:53 Clear 25 -3.9 20 -6.7 81 81 W 9 15 30.02 1017 10 16 0.00 0.00
3:53 am 03:53 Clear 23 -5 20 -6.7 88 88 WSW 8 13 30.04 1017 10 16 0.00 0.00
4:53 am 04:53 Cloudy 24 -4.4 21 -6.1 88 88 SW 7 11 30.05 1018 10 16 0.00 0.00
5:53 am 05:53 Cloudy 25 -3.9 21 -6.1 85 85 SW 5 7 30.05 1018 10 16 0.00 0.00
6:53 am 06:53 Cloudy 24 -4.4 21 -6.1 88 88 SW 6 9 30.03 1017 10 16 0.00 0.00
7:53 am 07:53 Cloudy 24 -4.4 21 -6.1 88 88 Calm 30.01 1016 10 16 0.00 0.00
8:53 am 08:53 Sunny 24 -4.4 20 -6.7 84 84 ENE 5 7 30.01 1016 10 16 0.00 0.00
9:53 am 09:53 Sunny 25 -3.9 21 -6.1 85 85 E 7 11 30.01 1016 10 16 0.00 0.00
10:53 am 10:53 Sunny 26 -3.3 22 -5.6 84 84 E 6 9 29.99 1016 10 16 0.00 0.00
11:53 am 11:53 Sunny 29 -1.7 23 -5 78 78 E 6 9 29.98 1015 10 16 0.00 0.00
12:53 pm 12:53 Cloudy 31 -0.6 23 -5 72 72 E 5 7 29.94 1014 10 16 0.00 0.00
1:53 pm 13:53 Mostly Cloudy 36 2.2 26 -3.3 67 67 WSW 6 9 29.91 1013 10 16 0.00 0.00
2:53 pm 14:53 Mostly Cloudy 43 6.1 31 -0.6 63 63 SW 10 17 29.89 1012 10 16 0.00 0.00
3:53 pm 15:53 Partly Cloudy 43 6.1 32 0 65 65 SW 14 22 29.89 1012 10 16 0.00 0.00
4:53 pm 16:53 Clear 42 5.6 31 -0.6 65 65 SW 18 30 29.89 1012 10 16 0.00 0.00
5:53 pm 17:53 Clear 41 5 32 0 70 70 SW 22 35 29.88 1012 10 16 0.00 0.00
6:53 pm 18:53 Clear 44 6.7 32 0 63 63 SW 28 44 29.87 1012 10 16 0.00 0.00
7:53 pm 19:53 Clear 44 6.7 32 0 63 63 SW 25 41 29.87 1011 10 16 0.00 0.00
8:53 pm 20:53 Clear 43 6.1 32 0 65 65 SW 29 46 29.85 1011 10 16 0.00 0.00
9:53 pm 21:53 Clear 42 5.6 31 -0.6 65 65 SW 23 37 29.86 1011 10 16 0.00 0.00
10:53 pm 22:53 Clear 43 6.1 30 -1.1 60 60 SW 26 43 29.85 1011 10 16 0.00 0.00
11:53 pm 23:53 Clear 43 6.1 29 -1.7 58 58 SW 24 39 29.84 1011 10 16 0.00 0.00

Powered by AerisWeather